View from above orbital plane
|
View from above satellite
|
Ground track
|
The orbit data is extracted from the following two-line orbital elements,
1 00107U 61013A 21017.46847620 .00000656 00000-0 65777-4 0 9990
2 00107 28.7926 52.6515 0545959 256.7728 97.1407 14.09092250996433
Epoch (UTC): | 17 January 2021 11:14:36 |
Eccentricity: | 0.0545959 |
inclination: | 28.7926° |
perigee height: | 467 km |
apogee height: | 1258 km |
right ascension of ascending node: | 52.6515° |
argument of perigee: | 256.7728° |
revolutions per day: | 14.09092250 |
mean anomaly at epoch: | 97.1407° |
orbit number at epoch: | 99643 |
The dashed part of the orbit path shows where the satellite is in the earth's shadow,
|
|